Regional Weather Roundup
Issued by NWS Albany, NY

Home | Current Version | Previous Version | Graphics & Text | Print | Product List | Glossary Off
Versions: 1 2 3 4 5 6 7 8 9 10 11 12 13 14 15 16 17 18 19 20 21 22 23 24 25 26 27 28 29 30 31 32 33 34 35 36 37 38 39 40 41 42 43 44 45 46 47 48 49 50

000
ASUS41 KALY 210410
RWRALY

NEW YORK STATE HOURLY WEATHER ROUNDUP
NATIONAL WEATHER SERVICE ALBANY NY
1100 PM EST THU NOV 20 2014

NOTE: "FAIR" INDICATES FEW OR NO CLOUDS BELOW 12,000 FEET WITH NO
SIGNIFICANT WEATHER AND/OR NO OBSTRUCTIONS TO VISIBILITY.

NYZ032-033-038>043-046>054-057>066-NYZ062>081-210500-
EAST


CITY           SKY/WX    TMP DP  RH WIND       PRES   REMARKS
ALBANY         PTCLDY    23  15  71 CALM      29.95S
GLENS FALLS    CLEAR     24  14  65 SW6       29.91R WCI  17
POUGHKEEPSIE   CLEAR     31  10  41 W12       29.97R WCI  22
NEWBURGH       CLEAR     28  12  50 W15G26    29.97R WCI  17
MONTGOMERY     CLEAR     29   6  38 W7G17     29.97R WCI  22
WHITE PLAINS   CLEAR     31   9  39 W10G18    29.96R WCI  22
ISLIP          MOCLDY    34  13  41 W9        29.96R WCI  27
NEW YORK CITY  PTCLDY    34  12  40 NW18G26   30.01R WCI  23
CENTRAL PARK   CLEAR     33   8  35 VRB6      30.02R WCI  28
$$

NYZ005>009-017-018-044>046-055-056-210500-
CENTRAL


CITY           SKY/WX    TMP DP  RH WIND       PRES   REMARKS
FULTON         MOCLDY    25  14  63 SW13      29.92S WCI  14
SYRACUSE       CLOUDY    26  16  65 SW18G25   29.95R WCI  13
ROME           CLOUDY    25  14  63 W14       29.95R WCI  13
ELMIRA         CLOUDY    25  12  58 W13G21    29.97R WCI  14
BINGHAMTON     MOCLDY    21   8  57 W13G18    29.91R WCI   9
MONTICELLO     CLEAR     21   5  49 W15G22    29.92S WCI   8
$$

NYZ026>034-041>043-210500-
NORTH


CITY           SKY/WX    TMP DP  RH WIND       PRES   REMARKS
WATERTOWN      MOCLDY    27  10  49 W13       29.90R WCI  16
FORT DRUM      NOT AVBL
MASSENA        CLEAR     20  10  65 SW9       29.85R WCI   9
SARANAC LAKE   CLEAR     17   9  70 SW9       29.75R WCI   6
PLATTSBURGH    CLEAR     24  11  57 SW6       29.83  WCI  17
$$

NYZ001>004-010>016-019>021-210500-
WEST


CITY           SKY/WX    TMP DP  RH WIND       PRES   REMARKS
NIAGARA FALLS  PTCLDY    19  10  68 W20       29.98R WCI   3
BUFFALO        MOCLDY    20  11  68 W16       29.98R WCI   6
DUNKIRK        LGT SNOW  23   9  55 W22G32    30.02R WCI   8
JAMESTOWN      CLOUDY    19  14  79 W9        29.96R WCI   9
WELLSVILLE     LGT SNOW  18  13  80 W9        29.91S WCI   7
ROCHESTER      CLOUDY    23  13  65 SW15      29.97R WCI  10
PENN YAN       PTCLDY    21  12  68 SW10      29.96R WCI  10
$$

             KEY
       WCI = WIND CHILL INDEX
       VSB = VISIBILITY
       HX  = HEAT INDEX
$$


USA.gov is the U.S. government's official web portal to all federal, state and local government web resources and services.